Thomson Majesty — 9HA2188 — position and weather

sailwx.info

Track history (hours):
 
Tides and Currents Weather Stations Pressure Air Temp Water Temp Dewpoint Dewpoint Depression Visibility Wind Speed Wind Dir Waves Ship Positions

Thomson Majesty

Last reported at 2017-Mar-24 05:25 UTC. Time now 2017-Mar-24 20:06 UTC.
Position N 28°28' W 016°15'.

Length 207 m; draft 6.2 m.

Type: Ship. MMSI: 248124000.

Date/timePositionNaut miles runAvg speedWind from/ knotsBaromVisibWave heightAir tempDewpointWater temp
2017-Mar-24 05:25N 28°28' W 016°15'7 8.2
2017-Mar-24 04:31N 28°24' W 016°08'14 6.8
2017-Mar-24 02:31N 28°12' W 016°03'11 9.4
2017-Mar-24 01:21N 28°03' W 016°11'  
2017-Mar-19 06:29N 29°19' W 015°49'1410.2
2017-Mar-19 05:06N 29°06' W 015°44'2010.6
2017-Mar-19 03:12N 28°47' W 015°36'910.7
2017-Mar-19 02:21N 28°38' W 015°32'1010.8
2017-Mar-19 01:28N 28°29' W 015°29'1010.8
2017-Mar-19 00:31N 28°20' W 015°25'11 0.7
2017-Mar-18 07:16N 28°08' W 015°25'6 8.3
2017-Mar-18 06:30N 28°13' W 015°20'1312.8
2017-Mar-18 05:28N 28°26' W 015°22'1313.7
2017-Mar-18 04:31N 28°28' W 015°37'1715.8
2017-Mar-18 03:26N 28°22' W 015°55'16 0.7
2017-Mar-17 05:32N 28°29' W 016°12'1815.8
2017-Mar-17 04:25N 28°30' W 015°52'1515.8
2017-Mar-17 03:29N 28°39' W 015°39'1613.6
2017-Mar-17 02:19N 28°41' W 015°21'6212.8
2017-Mar-16 21:29N 28°47' W 014°10'1111.9
2017-Mar-16 20:33N 28°48' W 013°58'1211.6
2017-Mar-16 19:33N 28°49' W 013°44'1212.1
2017-Mar-16 18:33N 28°56' W 013°33'2 2.3
2017-Mar-16 17:30N 28°58' W 013°32'0 0.0
2017-Mar-16 16:30N 28°58' W 013°32'0 0.0
2017-Mar-16 15:30N 28°58' W 013°32'0 0.0
2017-Mar-16 14:30N 28°58' W 013°32'0 0.0
2017-Mar-16 13:30N 28°58' W 013°32'0 0.0
2017-Mar-16 11:24N 28°58' W 013°32'0 0.0
2017-Mar-16 10:12N 28°58' W 013°32'0 0.0
2017-Mar-16 09:30N 28°58' W 013°32'0 0.0
2017-Mar-16 08:30N 28°58' W 013°32'0 0.3
2017-Mar-16 07:33N 28°58' W 013°32'1211.9
2017-Mar-16 06:32N 28°47' W 013°39'6 6.3
2017-Mar-16 05:33N 28°42' W 013°43'2 2.0
2017-Mar-16 04:33N 28°44' W 013°42'2 1.7
2017-Mar-16 03:33N 28°46' W 013°42'1 1.3
2017-Mar-16 02:33N 28°47' W 013°41'1 1.3
2017-Mar-16 01:33N 28°48' W 013°41'1 1.4
2017-Mar-16 00:32N 28°50' W 013°40'1 1.4
2017-Mar-15 23:33N 28°51' W 013°39'1 1.4
2017-Mar-15 22:32N 28°52' W 013°39'1 0.9
2017-Mar-15 21:33N 28°53' W 013°38'1110.8
2017-Mar-15 20:33N 28°48' W 013°50'1211.1
2017-Mar-15 19:30N 28°57' W 013°59'  
Track history (hours):
 
Tides and Currents Weather Stations Pressure Air Temp Water Temp Dewpoint Dewpoint Depression Visibility Wind Speed Wind Dir Waves Ship Positions

Thomson Majesty

Last reported at 2017-Mar-24 05:25 UTC. Time now 2017-Mar-24 20:06 UTC.
Position N 28°28' W 016°15'.

Length 207 m; draft 6.2 m.

Type: Ship. MMSI: 248124000.

Date/timePositionNaut miles runAvg speedWind from/ knotsBaromVisibWave heightAir tempDewpointWater temp
2017-Mar-24 05:25N 28°28' W 016°15'7 8.2
2017-Mar-24 04:31N 28°24' W 016°08'14 6.8
2017-Mar-24 02:31N 28°12' W 016°03'11 9.4
2017-Mar-24 01:21N 28°03' W 016°11'  
2017-Mar-19 06:29N 29°19' W 015°49'1410.2
2017-Mar-19 05:06N 29°06' W 015°44'2010.6
2017-Mar-19 03:12N 28°47' W 015°36'910.7
2017-Mar-19 02:21N 28°38' W 015°32'1010.8
2017-Mar-19 01:28N 28°29' W 015°29'1010.8
2017-Mar-19 00:31N 28°20' W 015°25'11 0.7
2017-Mar-18 07:16N 28°08' W 015°25'6 8.3
2017-Mar-18 06:30N 28°13' W 015°20'1312.8
2017-Mar-18 05:28N 28°26' W 015°22'1313.7
2017-Mar-18 04:31N 28°28' W 015°37'1715.8
2017-Mar-18 03:26N 28°22' W 015°55'16 0.7
2017-Mar-17 05:32N 28°29' W 016°12'1815.8
2017-Mar-17 04:25N 28°30' W 015°52'1515.8
2017-Mar-17 03:29N 28°39' W 015°39'1613.6
2017-Mar-17 02:19N 28°41' W 015°21'6212.8
2017-Mar-16 21:29N 28°47' W 014°10'1111.9
2017-Mar-16 20:33N 28°48' W 013°58'1211.6
2017-Mar-16 19:33N 28°49' W 013°44'1212.1
2017-Mar-16 18:33N 28°56' W 013°33'2 2.3
2017-Mar-16 17:30N 28°58' W 013°32'0 0.0
2017-Mar-16 16:30N 28°58' W 013°32'0 0.0
2017-Mar-16 15:30N 28°58' W 013°32'0 0.0
2017-Mar-16 14:30N 28°58' W 013°32'0 0.0
2017-Mar-16 13:30N 28°58' W 013°32'0 0.0
2017-Mar-16 11:24N 28°58' W 013°32'0 0.0
2017-Mar-16 10:12N 28°58' W 013°32'0 0.0
2017-Mar-16 09:30N 28°58' W 013°32'0 0.0
2017-Mar-16 08:30N 28°58' W 013°32'0 0.3
2017-Mar-16 07:33N 28°58' W 013°32'1211.9
2017-Mar-16 06:32N 28°47' W 013°39'6 6.3
2017-Mar-16 05:33N 28°42' W 013°43'2 2.0
2017-Mar-16 04:33N 28°44' W 013°42'2 1.7
2017-Mar-16 03:33N 28°46' W 013°42'1 1.3
2017-Mar-16 02:33N 28°47' W 013°41'1 1.3
2017-Mar-16 01:33N 28°48' W 013°41'1 1.4
2017-Mar-16 00:32N 28°50' W 013°40'1 1.4
2017-Mar-15 23:33N 28°51' W 013°39'1 1.4
2017-Mar-15 22:32N 28°52' W 013°39'1 0.9
2017-Mar-15 21:33N 28°53' W 013°38'1110.8
2017-Mar-15 20:33N 28°48' W 013°50'1211.1
2017-Mar-15 19:30N 28°57' W 013°59'  

Dump ship's entire track history